Starlink 5185

operational
NORAD ID: 54100 Int'l Des: 2022-136 Owner: SPXS Country: US Constellation: starlink
LEOCIRCULAR

Über Starlink 5185

Beschreibung wird geladen...

Live-Position

3D-Globus wird geladen...

Nächste Überflüge

Höhenverlauf

Altitude vs Time

uPlot chart will show altitude changes over time

Zweizeiliger Elementsatz

1 54100U 22136BB 25308.59865787 -.00000308 00000-0 -12384-5 0 9993
2 54100 53.2143 175.3887 0001482 85.1255 274.9906 15.08836926168101
Epoch: 4. Nov. 2025 • Age: 7 hours

Aktueller Status

Höhe 552.1 km
Geschwindigkeit 7.59 km/s
Subsatellitenpunkt -36.12°S, 16.55°E
Startdatum 20. Okt. 2022
Alter 3 years
Typ internet

Technische Details

Klassifizierung Payload
Masse 305.00 kg
Trockenmasse 290.00 kg
Gesamtmasse 305.00 kg
Länge 0.20 m
Durchmesser 2.80 m
Spannweite 9.00 m
Form Box + pan
Hersteller SPXS
Bus-Typ Starlink
Phasenstatus In Orbit
Besitzer/Staat SPXS/US

Große Konstellationen

Loading constellations...